星链-31819 (STARLINK-31819 )

导读 | 豆包AI

STARLINK-31819是美国SpaceX星链星座中的一颗卫星,于2024年5月13日发射升空,星链计划旨在构建覆盖全球的卫星互联网星座,为全球偏远地区、海上用户等提供高速低延迟的宽带网络服务。该卫星承担着扩展星链网络覆盖范围、提升服务容量的任务,助力SpaceX推进全球卫星互联网布局。

基本信息
目录编号:
59738
目录名称:
STARLINK-31819
国际标识:
2024-090J
轨道中心:
EARTH
卫星名称:
星链-31819
卫星全名:
星链-31819 (STARLINK-31819 )
卫星状态:
在轨 (已飞行718 天)
发射日期:
2024-05-13 UTC
国别 :
美国 (US)
星等 :
--
轨道信息
数据来源 国际轨道数据
星历时间: 2026-04-30T18:25:27+0800
15小时前
查看轨道信息
半长轴: 6861.196km
偏心率: 0.0000682
轨道倾角: 42.996°
近地点辐角 210.212°
升交点赤经 251.278°
平近点角 149.869°
近地点: 482.591km
远地点: 483.527km
周期: 94.267分钟
每日圈数: 15.275767
详细信息
固有亮度:
5
最大亮度:
1.5
卫星平台:
Starlink v2.0 mini
覆盖范围:
全球
运营商:
太空探索技术公司
运营商所在国:
美国
制造商(研发单位):
太空探索技术公司
制造商所在国:
美国
使用方式:
暂无
卫星简介
星链(Starlink)计划是由太空探索技术公司(SpaceX)提出的一个巨型低轨卫星互联网星座项目,计划在2019年至2024年间在太空搭建由约1.2万颗卫星组成的“星链”网络,其中1584颗将部署在地球上空550千米处的近地轨道,并从2020年开始工作。该卫星仍在工作。
2D轨道图
3D轨道图
轨道高度分析图
轨道倾角分析图
轨道综合分析图
查看轨道综合分析图